Weather History for Forest City, IA

Change the Weather History Date:

Sunday, January 29, 2012

  Actual Average Record
Temperature  
Mean Temperature 24 °F -  
Max Temperature 28 °F 23 °F 33 °F (2013)
Min Temperature 19 °F 5 °F -4 °F (2014)
Degree Days  
Heating Degree Days 42    
Moisture  
Dew Point 16 °F    
Average Humidity 75    
Maximum Humidity 86    
Minimum Humidity 63    
Precipitation  
Precipitation 0.00 in - - ()
Sea Level Pressure  
Sea Level Pressure 30.09 in    
Wind  
Wind Speed 11 mph (NW)    
Max Wind Speed 20 mph    
Max Gust Speed 29 mph    
Visibility 10 miles    
Events Snow    
Averages and records for this station are not official NWS values.
T = Trace of Precipitation, MM = Missing Value Source: NWS Daily Summary

Daily Weather History Graph

Daily Weather History Graph

Search for Another Location

Airport:

Trip Planner

Search our weather history database for the weather conditions in past years. The results will help you decide how hot, cold, wet, or windy it might be!

Date:

Astronomy

Jan. 29, 2012 Rise Set
Actual Time 7:33 AM CST 5:22 PM CST
Civil Twilight 7:03 AM CST 5:52 PM CST
Nautical Twilight 6:28 AM CST 6:26 PM CST
Astronomical Twilight 5:55 AM CST 7:00 PM CST
Moon 10:12 AM CST (1/29) No Moon Set
Length of Visible Light 10h 49m
Length of Day
9h 48m
Waxing Crescent, 37% of the Moon is Illuminated
Jan 29
Waxing Crescent
Jan 30
First Quarter
Feb 7
Full
Feb 14
Last Quarter
Feb 21
New

Hourly Weather History & Observations

Time (CST) Temp. Windchill Dew Point Humidity Pressure Visibility Wind Dir Wind Speed Gust Speed Precip Events Conditions
12:15 AM 28.4 °F 22.2 °F 23.0 °F 80% 29.94 in 10.0 mi West 5.8 mph - N/A   Overcast
12:35 AM 28.4 °F 19.1 °F 21.2 °F 74% 29.94 in 10.0 mi West 10.4 mph - N/A   Overcast
12:55 AM 28.4 °F 16.6 °F 21.2 °F 74% 29.95 in 10.0 mi WNW 16.1 mph - N/A   Overcast
1:15 AM 28.4 °F 15.8 °F 21.2 °F 74% 29.96 in 10.0 mi WNW 18.4 mph 23.0 mph N/A   Mostly Cloudy
1:35 AM 26.6 °F 13.8 °F 21.2 °F 80% 29.97 in 10.0 mi WNW 17.3 mph - N/A   Scattered Clouds
1:55 AM 28.4 °F 15.4 °F 21.2 °F 74% 29.97 in 10.0 mi WNW 19.6 mph 25.3 mph N/A   Overcast
2:15 AM 26.6 °F 13.8 °F 21.2 °F 80% 29.98 in 10.0 mi WNW 17.3 mph 26.5 mph N/A   Overcast
2:35 AM 26.6 °F 13.1 °F 19.4 °F 74% 29.99 in 10.0 mi WNW 19.6 mph 25.3 mph N/A   Overcast
2:55 AM 26.6 °F 13.1 °F 19.4 °F 74% 30.01 in 10.0 mi NW 19.6 mph 26.5 mph N/A   Overcast
3:15 AM 26.6 °F 14.3 °F 19.4 °F 74% 30.01 in 10.0 mi NW 16.1 mph 28.8 mph N/A   Overcast
3:35 AM 26.6 °F 14.3 °F 19.4 °F 74% 30.02 in 10.0 mi WNW 16.1 mph 23.0 mph N/A   Overcast
3:55 AM 24.8 °F 11.5 °F 19.4 °F 80% 30.03 in 10.0 mi NW 17.3 mph 23.0 mph N/A   Overcast
4:15 AM 24.8 °F 13.4 °F 19.4 °F 80% 30.04 in 10.0 mi NW 12.7 mph 20.7 mph N/A   Mostly Cloudy
4:35 AM 23.0 °F 14.7 °F 19.4 °F 86% 30.04 in 10.0 mi NW 6.9 mph 10.4 mph N/A   Scattered Clouds
4:55 AM 23.0 °F 12.4 °F 19.4 °F 86% 30.05 in 10.0 mi NW 10.4 mph - N/A Snow Light Snow
5:15 AM 23.0 °F 13.9 °F 19.4 °F 86% 30.06 in 5.0 mi NW 8.1 mph - N/A Snow Light Snow
5:35 AM 23.0 °F 10.6 °F 19.4 °F 86% 30.07 in 4.0 mi NW 13.8 mph 20.7 mph N/A Snow Light Snow
5:55 AM 23.0 °F 11.1 °F 19.4 °F 86% 30.07 in 7.0 mi NNW 12.7 mph 21.9 mph N/A Snow Light Snow
6:15 AM 23.0 °F 11.1 °F 19.4 °F 86% 30.09 in 10.0 mi NNW 12.7 mph - N/A Snow Light Snow
6:35 AM 21.2 °F 9.5 °F 17.6 °F 86% 30.10 in 10.0 mi NNW 11.5 mph - N/A   Overcast
6:55 AM 21.2 °F 10.1 °F 15.8 °F 80% 30.11 in 10.0 mi NNW 10.4 mph - N/A   Overcast
7:15 AM 21.2 °F 10.9 °F 15.8 °F 80% 30.12 in 10.0 mi NW 9.2 mph - N/A Snow Light Snow
7:35 AM 21.2 °F 11.7 °F 15.8 °F 80% 30.13 in 10.0 mi NNW 8.1 mph - N/A Snow Light Snow
7:55 AM 21.2 °F 12.6 °F 15.8 °F 80% 30.12 in 10.0 mi NW 6.9 mph - N/A   Overcast
8:15 AM 21.2 °F 10.1 °F 15.8 °F 80% 30.13 in 10.0 mi NNW 10.4 mph - N/A   Overcast
8:35 AM 21.2 °F 10.1 °F 15.8 °F 80% 30.14 in 10.0 mi NNW 10.4 mph - N/A Snow Light Snow
8:55 AM 21.2 °F 10.1 °F 15.8 °F 80% 30.15 in 10.0 mi NNW 10.4 mph - N/A Snow Light Snow
9:15 AM 21.2 °F 10.1 °F 15.8 °F 80% 30.15 in 10.0 mi NNW 10.4 mph - N/A Snow Light Snow
9:35 AM 21.2 °F 8.3 °F 12.2 °F 68% 30.15 in 10.0 mi North 13.8 mph - N/A   Overcast
9:55 AM 21.2 °F 7.8 °F 12.2 °F 68% 30.15 in 10.0 mi North 15.0 mph - N/A   Overcast
10:15 AM 21.2 °F 9.5 °F 12.2 °F 68% 30.16 in 10.0 mi NNW 11.5 mph - N/A   Overcast
10:35 AM 21.2 °F 10.9 °F 12.2 °F 68% 30.17 in 10.0 mi NNW 9.2 mph - N/A   Overcast
11:15 AM 21.2 °F 9.5 °F 12.2 °F 68% 30.18 in 10.0 mi NNW 11.5 mph - N/A   Scattered Clouds
11:35 AM 21.2 °F 11.7 °F 12.2 °F 68% 30.18 in 10.0 mi NW 8.1 mph 16.1 mph N/A   Scattered Clouds
11:55 AM 21.2 °F 12.6 °F 12.2 °F 68% 30.18 in 10.0 mi NW 6.9 mph - N/A   Scattered Clouds
12:15 PM 21.2 °F 10.9 °F 12.2 °F 68% 30.19 in 10.0 mi NW 9.2 mph - N/A   Scattered Clouds
12:35 PM 21.2 °F 10.9 °F 12.2 °F 68% 30.17 in 10.0 mi NW 9.2 mph - N/A   Scattered Clouds
1:15 PM 21.2 °F 11.7 °F 12.2 °F 68% 30.16 in 10.0 mi WNW 8.1 mph - N/A   Scattered Clouds
1:35 PM 21.2 °F 14.9 °F 12.2 °F 68% 30.16 in 10.0 mi WNW 4.6 mph - N/A   Clear
1:55 PM 21.2 °F 14.9 °F 12.2 °F 68% 30.15 in 10.0 mi NW 4.6 mph - N/A   Clear
2:15 PM 23.0 °F 18.4 °F 12.2 °F 63% 30.15 in 10.0 mi NW 3.5 mph - N/A   Clear
2:35 PM 23.0 °F 17.0 °F 12.2 °F 63% 30.14 in 10.0 mi West 4.6 mph - N/A   Clear
2:55 PM 23.0 °F 17.0 °F 12.2 °F 63% 30.14 in 10.0 mi West 4.6 mph - N/A   Clear
3:15 PM 23.0 °F 18.4 °F 12.2 °F 63% 30.14 in 10.0 mi West 3.5 mph - N/A   Clear
3:35 PM 23.0 °F 17.0 °F 14.0 °F 68% 30.14 in 10.0 mi WSW 4.6 mph - N/A   Clear
3:55 PM 23.0 °F 15.8 °F 14.0 °F 68% 30.14 in 10.0 mi SSW 5.8 mph - N/A   Clear
4:15 PM 23.0 °F 18.4 °F 14.0 °F 68% 30.13 in 10.0 mi South 3.5 mph - N/A   Clear
4:35 PM 23.0 °F 18.4 °F 14.0 °F 68% 30.13 in 10.0 mi SSW 3.5 mph - N/A   Clear
4:55 PM 23.0 °F 17.0 °F 15.8 °F 74% 30.12 in 10.0 mi SSE 4.6 mph - N/A   Mostly Cloudy
5:15 PM 21.2 °F 14.9 °F 15.8 °F 80% 30.11 in 10.0 mi SE 4.6 mph - N/A   Mostly Cloudy
5:35 PM 21.2 °F 14.9 °F 14.0 °F 74% 30.11 in 10.0 mi SE 4.6 mph - N/A   Scattered Clouds
5:55 PM 19.4 °F 12.8 °F 14.0 °F 80% 30.11 in 10.0 mi SE 4.6 mph - N/A   Scattered Clouds
6:15 PM 19.4 °F 12.8 °F 14.0 °F 80% 30.10 in 10.0 mi SE 4.6 mph - N/A   Mostly Cloudy
6:35 PM 19.4 °F 11.5 °F 14.0 °F 80% 30.10 in 10.0 mi SE 5.8 mph - N/A   Overcast
6:55 PM 21.2 °F 13.6 °F 14.0 °F 74% 30.09 in 10.0 mi SE 5.8 mph - N/A   Overcast
7:15 PM 21.2 °F 11.7 °F 15.8 °F 80% 30.08 in 10.0 mi SE 8.1 mph - N/A   Overcast
7:35 PM 21.2 °F 10.9 °F 15.8 °F 80% 30.07 in 10.0 mi SE 9.2 mph - N/A   Overcast
7:55 PM 21.2 °F 12.6 °F 15.8 °F 80% 30.06 in 10.0 mi ESE 6.9 mph - N/A   Overcast
8:15 PM 23.0 °F 14.7 °F 15.8 °F 74% 30.06 in 10.0 mi SE 6.9 mph - N/A   Overcast
8:35 PM 23.0 °F 12.4 °F 17.6 °F 80% 30.06 in 10.0 mi SE 10.4 mph - N/A   Overcast
8:55 PM 23.0 °F 12.4 °F 17.6 °F 80% 30.04 in 10.0 mi SE 10.4 mph - N/A   Overcast
9:15 PM 23.0 °F 11.7 °F 17.6 °F 80% 30.03 in 10.0 mi SE 11.5 mph - N/A   Overcast
9:35 PM 23.0 °F 11.1 °F 17.6 °F 80% 30.02 in 10.0 mi SE 12.7 mph 17.3 mph N/A   Overcast
9:55 PM 23.0 °F 10.1 °F 17.6 °F 80% 30.01 in 10.0 mi SE 15.0 mph - N/A   Overcast
10:15 PM 24.8 °F 13.4 °F 19.4 °F 80% 29.99 in 10.0 mi SE 12.7 mph - N/A   Overcast
10:35 PM 24.8 °F 13.4 °F 19.4 °F 80% 29.98 in 10.0 mi SE 12.7 mph - N/A   Overcast
10:55 PM 24.8 °F 12.9 °F 19.4 °F 80% 29.97 in 10.0 mi SE 13.8 mph - N/A   Overcast
11:15 PM 26.6 °F 14.7 °F 19.4 °F 74% 29.95 in 10.0 mi SE 15.0 mph - N/A   Overcast
11:35 PM 26.6 °F 15.2 °F 19.4 °F 74% 29.94 in 10.0 mi SE 13.8 mph 21.9 mph N/A   Overcast
11:55 PM 26.6 °F 14.3 °F 19.4 °F 74% 29.92 in 10.0 mi SE 16.1 mph - N/A   Overcast